Weather in Melnitsa

Russia / Irkutsk Oblast     54°50′42″N   99°04′32″E
temp.,
°C
wind,
m/s
gust,
m/s
humid.,
%
clouds,
%
prec.,
mm/h
press.,
hPa
HPBL,
m
24 may, tue
tue2423:00+10sw21490 0.0 102110
02:00+9sw22550 0.0 102317
05:00+8sw115810 0.0 102311
08:00+14ssw014197 0.0 1024289
11:00+19nne213166 0.0 10231779
14:00+22ne21245 0.0 10212523
17:00+22ne33215 0.0 10202990
20:00+20ene24305 0.0 1020140
25 may, wed
wed2523:00+12sw22450 0.0 102112
02:00+11ssw22460 0.0 102122
05:00+10ssw22490 0.0 102018
08:00+17se23360 0.0 1019243
11:00+22ese3425100 0.0 10161384
14:00+24ese3319100 0.0 10131875
17:00+25e2219100 0.0 10112093
20:00+21ene1132100 0.0 101013
26 may, thu
thu2623:00+15w224371 0.0 101219
02:00+14w32430 0.0 101232
05:00+12wnw22560 0.0 101235
08:00+16nnw234951 0.0 1013442
11:00+14n256742 0.0 1014355
14:00+19nnw584826 0.7 10121868
17:00+20nw483240 0.4 10112626
20:00+16nne574517 0.4 10131199
27 may, fri
fri2723:00+12wnw115699 0.0 101311
02:00+9w006851 0.0 101310
05:00+7wsw117527 0.0 101310
08:00+12ese1253100 0.0 1011417
11:00+16ene2240100 0.1 10092035
14:00+16ne1240100 0.1 10081721
17:00+16ene234372 0.3 10081665
20:00+11nne367351 1.4 1009707
28 may, sat
sat2823:00+7nnw239591 0.7 1013111
02:00+7nnw258598 0.9 1014247
05:00+6n258985 0.1 1016255
08:00+7n236581 0.1 1019503
11:00+11nne343939 0.0 10181788
14:00+14nne33241 0.0 10172103
17:00+15nne33220 0.0 10162182
20:00+13ene23285 0.0 1016780